Tracking 33446 objects as of 10-Mar-2026
HD Live streaming from Space Station
objects crossing your sky now

SDA_1683

Track SDA_1683 now!
10-day predictions


NORAD ID: 65993
Int'l Code: 2025-230V
Perigee: 955.8 km
Apogee: 957.2 km
Inclination: 81.3 °
Period: 104.0 minutes
Semi major axis: 7327 km
RCS: Unknown
Launch date: October 15, 2025
Source: United States (US)
Launch site: AIR FORCE WESTERN TEST RANGE (AFWTR)
Your satellite tracking list
Your tracking list is empty




NASA's NSSDC Master Catalog

Two Line Element Set (TLE):
1 65993U 25230V   26069.15873830 -.00004730  00000-0 -42646-2 0  9992
2 65993  81.3007 303.5849 0001004  87.8288 272.2983 13.84104684 20106
Source of the keplerian elements: AFSPC